CN,EVAL_CN,ATTRIBUTE_NBR,STATECD,CREATED_BY,CREATED_DATE,CREATED_IN_INSTANCE,MODIFIED_BY,MODIFIED_DATE,MODIFIED_IN_INSTANCE
1404016048290487,493428604126144,51,35,JASONBROWN,2023-08-08 14:00:07,290487,,,
1404016049290487,493428604126144,52,35,JASONBROWN,2023-08-08 14:00:07,290487,,,
1404016050290487,493428604126144,59,35,JASONBROWN,2023-08-08 14:00:07,290487,,,
1404016051290487,493428604126144,62,35,JASONBROWN,2023-08-08 14:00:07,290487,,,
1404016052290487,493428604126144,63,35,JASONBROWN,2023-08-08 14:00:07,290487,,,
1404016053290487,493428604126144,64,35,JASONBROWN,2023-08-08 14:00:07,290487,,,
1404016054290487,493428604126144,65,35,JASONBROWN,2023-08-08 14:00:07,290487,,,
1404016055290487,493428604126144,66,35,JASONBROWN,2023-08-08 14:00:07,290487,,,
1404016056290487,493428604126144,73,35,JASONBROWN,2023-08-08 14:00:07,290487,,,
1404016057290487,493428604126144,79,35,JASONBROWN,2023-08-08 14:00:07,290487,,,
1404016058290487,493428604126144,96,35,JASONBROWN,2023-08-08 14:00:07,290487,,,
1404016059290487,493428604126144,97,35,JASONBROWN,2023-08-08 14:00:07,290487,,,
1404016060290487,493428604126144,98,35,JASONBROWN,2023-08-08 14:00:07,290487,,,
1404016061290487,493428604126144,99,35,JASONBROWN,2023-08-08 14:00:07,290487,,,
1404016062290487,493428604126144,100,35,JASONBROWN,2023-08-08 14:00:07,290487,,,
1404016063290487,493428604126144,101,35,JASONBROWN,2023-08-08 14:00:07,290487,,,
1404016064290487,493428604126144,102,35,JASONBROWN,2023-08-08 14:00:07,290487,,,
1404016065290487,493428604126144,103,35,JASONBROWN,2023-08-08 14:00:07,290487,,,
1404016066290487,493428604126144,131,35,JASONBROWN,2023-08-08 14:00:07,290487,,,
1404016067290487,493428604126144,132,35,JASONBROWN,2023-08-08 14:00:07,290487,,,
1404016068290487,493428604126144,1004,35,JASONBROWN,2023-08-08 14:00:07,290487,,,
1404016069290487,493428604126144,1005,35,JASONBROWN,2023-08-08 14:00:07,290487,,,
1404016070290487,493428604126144,1007,35,JASONBROWN,2023-08-08 14:00:07,290487,,,
1404016071290487,493428604126144,1008,35,JASONBROWN,2023-08-08 14:00:07,290487,,,
1404016072290487,493428604126144,11000,35,JASONBROWN,2023-08-08 14:00:07,290487,,,
1404016073290487,493428604126144,11001,35,JASONBROWN,2023-08-08 14:00:07,290487,,,
1404016074290487,493428604126144,11002,35,JASONBROWN,2023-08-08 14:00:07,290487,,,
1404016075290487,493428604126144,11003,35,JASONBROWN,2023-08-08 14:00:07,290487,,,
1404016076290487,493428604126144,11004,35,JASONBROWN,2023-08-08 14:00:07,290487,,,
1404016077290487,493428604126144,11005,35,JASONBROWN,2023-08-08 14:00:07,290487,,,
1404016078290487,493428604126144,11006,35,JASONBROWN,2023-08-08 14:00:07,290487,,,
1404016079290487,493428604126144,11007,35,JASONBROWN,2023-08-08 14:00:07,290487,,,
1404016080290487,493428604126144,11008,35,JASONBROWN,2023-08-08 14:00:07,290487,,,
1404016081290487,493428604126144,11009,35,JASONBROWN,2023-08-08 14:00:07,290487,,,
1404016082290487,493428604126144,11010,35,JASONBROWN,2023-08-08 14:00:07,290487,,,
1404016083290487,493428604126144,11011,35,JASONBROWN,2023-08-08 14:00:07,290487,,,
1404016084290487,493428604126144,11012,35,JASONBROWN,2023-08-08 14:00:07,290487,,,
1404016085290487,493428604126144,11013,35,JASONBROWN,2023-08-08 14:00:07,290487,,,
1404016086290487,493428604126144,11014,35,JASONBROWN,2023-08-08 14:00:07,290487,,,
1404016087290487,493428604126144,11015,35,JASONBROWN,2023-08-08 14:00:07,290487,,,
1404016088290487,493428604126144,11016,35,JASONBROWN,2023-08-08 14:00:07,290487,,,
1404016089290487,493428604126144,11017,35,JASONBROWN,2023-08-08 14:00:07,290487,,,
1404016090290487,493428604126144,11018,35,JASONBROWN,2023-08-08 14:00:07,290487,,,
1404016091290487,493428604126144,11019,35,JASONBROWN,2023-08-08 14:00:07,290487,,,
1404016092290487,493428604126144,11020,35,JASONBROWN,2023-08-08 14:00:07,290487,,,
1404016093290487,493428604126144,11021,35,JASONBROWN,2023-08-08 14:00:07,290487,,,
1404016094290487,493428604126144,11022,35,JASONBROWN,2023-08-08 14:00:07,290487,,,
1404016095290487,493428604126144,11023,35,JASONBROWN,2023-08-08 14:00:07,290487,,,
1404016096290487,493428604126144,11024,35,JASONBROWN,2023-08-08 14:00:07,290487,,,
1404016097290487,493428604126144,11025,35,JASONBROWN,2023-08-08 14:00:07,290487,,,
1404016098290487,493428604126144,11026,35,JASONBROWN,2023-08-08 14:00:07,290487,,,
1404016099290487,493428604126144,11027,35,JASONBROWN,2023-08-08 14:00:07,290487,,,
1404016100290487,493428604126144,11028,35,JASONBROWN,2023-08-08 14:00:07,290487,,,
1404016101290487,493428604126144,11029,35,JASONBROWN,2023-08-08 14:00:07,290487,,,
1404016102290487,493428604126144,11030,35,JASONBROWN,2023-08-08 14:00:07,290487,,,
1404016103290487,493428604126144,11031,35,JASONBROWN,2023-08-08 14:00:07,290487,,,
1404016104290487,493428604126144,11032,35,JASONBROWN,2023-08-08 14:00:07,290487,,,
1404016105290487,493428604126144,11033,35,JASONBROWN,2023-08-08 14:00:07,290487,,,
1404016106290487,493428604126144,11034,35,JASONBROWN,2023-08-08 14:00:07,290487,,,
1404016107290487,493428604126144,11035,35,JASONBROWN,2023-08-08 14:00:07,290487,,,
1404016108290487,493428604126144,11036,35,JASONBROWN,2023-08-08 14:00:07,290487,,,
1404016109290487,493428604126144,11037,35,JASONBROWN,2023-08-08 14:00:07,290487,,,
1404016110290487,493428604126144,11038,35,JASONBROWN,2023-08-08 14:00:07,290487,,,
1404017121290487,1249419568290487,11223,35,JASONBROWN,2023-08-08 14:00:07,290487,,,
1404017122290487,1249419568290487,11224,35,JASONBROWN,2023-08-08 14:00:07,290487,,,
1404017123290487,1249419568290487,11225,35,JASONBROWN,2023-08-08 14:00:07,290487,,,
1404017124290487,1249419568290487,11226,35,JASONBROWN,2023-08-08 14:00:07,290487,,,
1404017125290487,1249419568290487,11227,35,JASONBROWN,2023-08-08 14:00:07,290487,,,
1404017126290487,1249419568290487,11228,35,JASONBROWN,2023-08-08 14:00:07,290487,,,
1404017127290487,1249419568290487,11229,35,JASONBROWN,2023-08-08 14:00:07,290487,,,
1404017128290487,1249419568290487,11230,35,JASONBROWN,2023-08-08 14:00:07,290487,,,
1404017129290487,1249419568290487,11231,35,JASONBROWN,2023-08-08 14:00:07,290487,,,
1404017130290487,1249419568290487,11232,35,JASONBROWN,2023-08-08 14:00:07,290487,,,
1404017131290487,1249419568290487,11233,35,JASONBROWN,2023-08-08 14:00:07,290487,,,
1404017132290487,1249419568290487,11234,35,JASONBROWN,2023-08-08 14:00:07,290487,,,
1404017133290487,1249419568290487,11235,35,JASONBROWN,2023-08-08 14:00:07,290487,,,
1404017134290487,1249419568290487,11236,35,JASONBROWN,2023-08-08 14:00:07,290487,,,
1404017135290487,1249419568290487,11237,35,JASONBROWN,2023-08-08 14:00:07,290487,,,
1404017136290487,1249419568290487,11238,35,JASONBROWN,2023-08-08 14:00:07,290487,,,
1404017137290487,1249419568290487,11239,35,JASONBROWN,2023-08-08 14:00:07,290487,,,
1404017138290487,1249419568290487,11240,35,JASONBROWN,2023-08-08 14:00:07,290487,,,
1404017139290487,1249419568290487,11241,35,JASONBROWN,2023-08-08 14:00:07,290487,,,
1404017140290487,1249419568290487,11242,35,JASONBROWN,2023-08-08 14:00:07,290487,,,
1404017141290487,1249419568290487,11243,35,JASONBROWN,2023-08-08 14:00:07,290487,,,
1404017142290487,1249419568290487,11244,35,JASONBROWN,2023-08-08 14:00:07,290487,,,
1404017143290487,1249419568290487,11245,35,JASONBROWN,2023-08-08 14:00:07,290487,,,
1404017144290487,1249419568290487,11246,35,JASONBROWN,2023-08-08 14:00:07,290487,,,
1404017145290487,1249419568290487,11247,35,JASONBROWN,2023-08-08 14:00:07,290487,,,
1404017146290487,1249419568290487,11248,35,JASONBROWN,2023-08-08 14:00:07,290487,,,
1404017147290487,1249419568290487,574001,35,JASONBROWN,2023-08-08 14:00:07,290487,,,
1404017148290487,1249419568290487,574002,35,JASONBROWN,2023-08-08 14:00:07,290487,,,
1404017149290487,1249419568290487,574003,35,JASONBROWN,2023-08-08 14:00:07,290487,,,
1404017150290487,1249419568290487,574004,35,JASONBROWN,2023-08-08 14:00:07,290487,,,
1404017151290487,1249419568290487,574005,35,JASONBROWN,2023-08-08 14:00:07,290487,,,
1404017152290487,1249419568290487,574006,35,JASONBROWN,2023-08-08 14:00:07,290487,,,
1404017153290487,1249419568290487,574007,35,JASONBROWN,2023-08-08 14:00:07,290487,,,
1404017154290487,1249419568290487,574008,35,JASONBROWN,2023-08-08 14:00:07,290487,,,
1404017155290487,1249419568290487,574009,35,JASONBROWN,2023-08-08 14:00:07,290487,,,
1404017156290487,1249419568290487,574010,35,JASONBROWN,2023-08-08 14:00:07,290487,,,
1404017157290487,1249419568290487,574011,35,JASONBROWN,2023-08-08 14:00:07,290487,,,
1404017158290487,1249419568290487,574012,35,JASONBROWN,2023-08-08 14:00:07,290487,,,
1404017159290487,1249419568290487,574013,35,JASONBROWN,2023-08-08 14:00:07,290487,,,
1404017160290487,1249419568290487,574014,35,JASONBROWN,2023-08-08 14:00:07,290487,,,
1404017161290487,1249419568290487,574015,35,JASONBROWN,2023-08-08 14:00:07,290487,,,
1404017162290487,1249419568290487,574016,35,JASONBROWN,2023-08-08 14:00:07,290487,,,
1404017163290487,1249419568290487,574017,35,JASONBROWN,2023-08-08 14:00:07,290487,,,
1404017164290487,1249419568290487,574018,35,JASONBROWN,2023-08-08 14:00:07,290487,,,
1404017165290487,1249419568290487,574019,35,JASONBROWN,2023-08-08 14:00:07,290487,,,
1404017166290487,1249419568290487,574020,35,JASONBROWN,2023-08-08 14:00:07,290487,,,
1404017167290487,1249419568290487,574021,35,JASONBROWN,2023-08-08 14:00:07,290487,,,
1404017168290487,1249419568290487,574022,35,JASONBROWN,2023-08-08 14:00:07,290487,,,
1404017169290487,1249419568290487,574023,35,JASONBROWN,2023-08-08 14:00:07,290487,,,
1404017170290487,1249419568290487,574024,35,JASONBROWN,2023-08-08 14:00:07,290487,,,
1404017171290487,1249419568290487,574025,35,JASONBROWN,2023-08-08 14:00:07,290487,,,
1404017172290487,1249419568290487,574026,35,JASONBROWN,2023-08-08 14:00:07,290487,,,
1404017173290487,1249419568290487,574027,35,JASONBROWN,2023-08-08 14:00:07,290487,,,
1404017174290487,1249419568290487,574028,35,JASONBROWN,2023-08-08 14:00:07,290487,,,
1404017175290487,1249419568290487,574029,35,JASONBROWN,2023-08-08 14:00:07,290487,,,
1404017176290487,1249419568290487,574030,35,JASONBROWN,2023-08-08 14:00:07,290487,,,
1404017177290487,1249419568290487,574031,35,JASONBROWN,2023-08-08 14:00:07,290487,,,
1404017178290487,1249419568290487,574032,35,JASONBROWN,2023-08-08 14:00:07,290487,,,
1404017179290487,1249419568290487,574033,35,JASONBROWN,2023-08-08 14:00:07,290487,,,
1404017180290487,1249419568290487,574034,35,JASONBROWN,2023-08-08 14:00:07,290487,,,
1404017181290487,1249419568290487,574035,35,JASONBROWN,2023-08-08 14:00:07,290487,,,
1404017182290487,1249419568290487,574036,35,JASONBROWN,2023-08-08 14:00:07,290487,,,
1404017183290487,1249419568290487,574037,35,JASONBROWN,2023-08-08 14:00:07,290487,,,
1404017184290487,1249419568290487,574038,35,JASONBROWN,2023-08-08 14:00:07,290487,,,
1404017185290487,1249419568290487,574039,35,JASONBROWN,2023-08-08 14:00:07,290487,,,
1404017186290487,1249419568290487,574040,35,JASONBROWN,2023-08-08 14:00:07,290487,,,
1404017187290487,1249419568290487,574041,35,JASONBROWN,2023-08-08 14:00:07,290487,,,
1404017188290487,1249419568290487,574042,35,JASONBROWN,2023-08-08 14:00:07,290487,,,
1404017189290487,1249419568290487,574043,35,JASONBROWN,2023-08-08 14:00:07,290487,,,
1404017190290487,1249419568290487,574044,35,JASONBROWN,2023-08-08 14:00:07,290487,,,
1404017191290487,1249419568290487,574045,35,JASONBROWN,2023-08-08 14:00:07,290487,,,
1404017192290487,1249419568290487,574046,35,JASONBROWN,2023-08-08 14:00:07,290487,,,
1404017193290487,1249419568290487,574047,35,JASONBROWN,2023-08-08 14:00:07,290487,,,
1404017194290487,1249419568290487,574048,35,JASONBROWN,2023-08-08 14:00:07,290487,,,
1404017195290487,1249419568290487,574049,35,JASONBROWN,2023-08-08 14:00:07,290487,,,
1404017196290487,1249419568290487,574050,35,JASONBROWN,2023-08-08 14:00:07,290487,,,
1404017197290487,1249419568290487,574051,35,JASONBROWN,2023-08-08 14:00:07,290487,,,
1404017198290487,1249419568290487,574052,35,JASONBROWN,2023-08-08 14:00:07,290487,,,
1404017199290487,1249419568290487,574053,35,JASONBROWN,2023-08-08 14:00:07,290487,,,
1404017078290487,1249419568290487,11178,35,JASONBROWN,2023-08-08 14:00:07,290487,,,
1404017200290487,1249419568290487,574054,35,JASONBROWN,2023-08-08 14:00:07,290487,,,
1404017201290487,1249419568290487,574055,35,JASONBROWN,2023-08-08 14:00:07,290487,,,
1404017202290487,1249419568290487,574056,35,JASONBROWN,2023-08-08 14:00:07,290487,,,
1404017203290487,1249419568290487,574057,35,JASONBROWN,2023-08-08 14:00:07,290487,,,
1404017204290487,1249419568290487,574058,35,JASONBROWN,2023-08-08 14:00:07,290487,,,
1404017205290487,1249419568290487,574059,35,JASONBROWN,2023-08-08 14:00:07,290487,,,
1404017206290487,1249419568290487,574060,35,JASONBROWN,2023-08-08 14:00:07,290487,,,
1404017207290487,1249419568290487,574061,35,JASONBROWN,2023-08-08 14:00:07,290487,,,
1404017208290487,1249419568290487,574062,35,JASONBROWN,2023-08-08 14:00:07,290487,,,
1404017209290487,1249419568290487,574063,35,JASONBROWN,2023-08-08 14:00:07,290487,,,
1404017210290487,1249419568290487,574064,35,JASONBROWN,2023-08-08 14:00:07,290487,,,
1404017211290487,1249419568290487,574065,35,JASONBROWN,2023-08-08 14:00:07,290487,,,
1404017212290487,1249419568290487,574066,35,JASONBROWN,2023-08-08 14:00:07,290487,,,
1404017213290487,1249419568290487,574067,35,JASONBROWN,2023-08-08 14:00:07,290487,,,
1404017214290487,1249419568290487,574068,35,JASONBROWN,2023-08-08 14:00:07,290487,,,
1404017215290487,1249419568290487,574069,35,JASONBROWN,2023-08-08 14:00:07,290487,,,
1404017216290487,1249419568290487,574070,35,JASONBROWN,2023-08-08 14:00:07,290487,,,
1404017217290487,1249419568290487,574071,35,JASONBROWN,2023-08-08 14:00:07,290487,,,
1404017218290487,1249419568290487,574072,35,JASONBROWN,2023-08-08 14:00:07,290487,,,
1404017219290487,1249419568290487,574073,35,JASONBROWN,2023-08-08 14:00:07,290487,,,
1404017220290487,1249419568290487,574074,35,JASONBROWN,2023-08-08 14:00:07,290487,,,
1404017221290487,1249419568290487,574075,35,JASONBROWN,2023-08-08 14:00:07,290487,,,
1404017222290487,1249419568290487,574076,35,JASONBROWN,2023-08-08 14:00:07,290487,,,
1404017223290487,1249419568290487,574077,35,JASONBROWN,2023-08-08 14:00:07,290487,,,
1404017224290487,1249419568290487,574078,35,JASONBROWN,2023-08-08 14:00:07,290487,,,
1404017225290487,1249419568290487,574079,35,JASONBROWN,2023-08-08 14:00:07,290487,,,
1404017226290487,1249419568290487,574080,35,JASONBROWN,2023-08-08 14:00:07,290487,,,
1404017227290487,1249419568290487,574081,35,JASONBROWN,2023-08-08 14:00:07,290487,,,
1404017228290487,1249419568290487,574082,35,JASONBROWN,2023-08-08 14:00:07,290487,,,
1404017229290487,1249419568290487,574083,35,JASONBROWN,2023-08-08 14:00:07,290487,,,
1404017230290487,1249419568290487,574084,35,JASONBROWN,2023-08-08 14:00:07,290487,,,
1404017231290487,1249419568290487,574085,35,JASONBROWN,2023-08-08 14:00:07,290487,,,
1404017232290487,1249419568290487,574086,35,JASONBROWN,2023-08-08 14:00:07,290487,,,
1404017233290487,1249419568290487,574087,35,JASONBROWN,2023-08-08 14:00:07,290487,,,
1404017234290487,1249419568290487,574088,35,JASONBROWN,2023-08-08 14:00:07,290487,,,
1404017235290487,1249419568290487,574089,35,JASONBROWN,2023-08-08 14:00:07,290487,,,
1404017236290487,1249419568290487,574090,35,JASONBROWN,2023-08-08 14:00:07,290487,,,
1404017237290487,1249419568290487,574091,35,JASONBROWN,2023-08-08 14:00:07,290487,,,
1404017238290487,1249419568290487,574092,35,JASONBROWN,2023-08-08 14:00:07,290487,,,
1404017239290487,1249419568290487,574093,35,JASONBROWN,2023-08-08 14:00:07,290487,,,
1404017240290487,1249419568290487,574094,35,JASONBROWN,2023-08-08 14:00:07,290487,,,
1404017241290487,1249419568290487,574095,35,JASONBROWN,2023-08-08 14:00:07,290487,,,
1404017242290487,1249419568290487,574096,35,JASONBROWN,2023-08-08 14:00:07,290487,,,
1404017243290487,1249419568290487,574097,35,JASONBROWN,2023-08-08 14:00:07,290487,,,
1404017244290487,1249419568290487,574098,35,JASONBROWN,2023-08-08 14:00:07,290487,,,
1404017245290487,1249419568290487,574099,35,JASONBROWN,2023-08-08 14:00:07,290487,,,
1404017246290487,1249419568290487,574100,35,JASONBROWN,2023-08-08 14:00:07,290487,,,
1404017247290487,1249419568290487,574101,35,JASONBROWN,2023-08-08 14:00:07,290487,,,
1404017248290487,1249419568290487,574102,35,JASONBROWN,2023-08-08 14:00:07,290487,,,
1404017249290487,1249419568290487,574103,35,JASONBROWN,2023-08-08 14:00:07,290487,,,
1404017250290487,1249419568290487,574104,35,JASONBROWN,2023-08-08 14:00:07,290487,,,
1404017251290487,1249419568290487,574105,35,JASONBROWN,2023-08-08 14:00:07,290487,,,
1404017252290487,1249419568290487,574106,35,JASONBROWN,2023-08-08 14:00:07,290487,,,
1404017253290487,1249419568290487,574107,35,JASONBROWN,2023-08-08 14:00:07,290487,,,
1404017254290487,1249419568290487,574108,35,JASONBROWN,2023-08-08 14:00:07,290487,,,
1404017255290487,1249419568290487,574109,35,JASONBROWN,2023-08-08 14:00:07,290487,,,
1404017256290487,1249419568290487,574110,35,JASONBROWN,2023-08-08 14:00:07,290487,,,
1404017257290487,1249419568290487,574111,35,JASONBROWN,2023-08-08 14:00:07,290487,,,
1404017258290487,1249419568290487,574112,35,JASONBROWN,2023-08-08 14:00:07,290487,,,
1404017259290487,1249419568290487,574113,35,JASONBROWN,2023-08-08 14:00:07,290487,,,
1404015483290487,175475514020004,5,35,JASONBROWN,2023-08-08 14:00:07,290487,,,
1404015484290487,175475514020004,6,35,JASONBROWN,2023-08-08 14:00:07,290487,,,
1404015485290487,175475514020004,7,35,JASONBROWN,2023-08-08 14:00:07,290487,,,
1404015486290487,175475514020004,8,35,JASONBROWN,2023-08-08 14:00:07,290487,,,
1404015487290487,175475514020004,9,35,JASONBROWN,2023-08-08 14:00:07,290487,,,
1404015488290487,175475514020004,10,35,JASONBROWN,2023-08-08 14:00:07,290487,,,
1404015489290487,175475514020004,13,35,JASONBROWN,2023-08-08 14:00:07,290487,,,
1404015490290487,175475514020004,15,35,JASONBROWN,2023-08-08 14:00:07,290487,,,
1404015491290487,175475514020004,16,35,JASONBROWN,2023-08-08 14:00:07,290487,,,
1404015492290487,175475514020004,18,35,JASONBROWN,2023-08-08 14:00:07,290487,,,
1404015493290487,175475514020004,19,35,JASONBROWN,2023-08-08 14:00:07,290487,,,
1404015494290487,175475514020004,20,35,JASONBROWN,2023-08-08 14:00:07,290487,,,
1404015495290487,175475514020004,21,35,JASONBROWN,2023-08-08 14:00:07,290487,,,
1404015496290487,175475514020004,22,35,JASONBROWN,2023-08-08 14:00:07,290487,,,
1404015497290487,175475514020004,45,35,JASONBROWN,2023-08-08 14:00:07,290487,,,
1404015498290487,175475514020004,46,35,JASONBROWN,2023-08-08 14:00:07,290487,,,
1404015499290487,175475514020004,48,35,JASONBROWN,2023-08-08 14:00:07,290487,,,
1404015500290487,175475514020004,49,35,JASONBROWN,2023-08-08 14:00:07,290487,,,
1404015501290487,175475514020004,50,35,JASONBROWN,2023-08-08 14:00:07,290487,,,
1404015502290487,175475514020004,51,35,JASONBROWN,2023-08-08 14:00:07,290487,,,
1404015503290487,175475514020004,52,35,JASONBROWN,2023-08-08 14:00:07,290487,,,
1404015504290487,175475514020004,59,35,JASONBROWN,2023-08-08 14:00:07,290487,,,
1404015505290487,175475514020004,62,35,JASONBROWN,2023-08-08 14:00:07,290487,,,
1404015506290487,175475514020004,63,35,JASONBROWN,2023-08-08 14:00:07,290487,,,
1404015507290487,175475514020004,64,35,JASONBROWN,2023-08-08 14:00:07,290487,,,
1404015508290487,175475514020004,65,35,JASONBROWN,2023-08-08 14:00:07,290487,,,
1404015509290487,175475514020004,66,35,JASONBROWN,2023-08-08 14:00:07,290487,,,
1404015510290487,175475514020004,73,35,JASONBROWN,2023-08-08 14:00:07,290487,,,
1404015511290487,175475514020004,79,35,JASONBROWN,2023-08-08 14:00:07,290487,,,
1404015512290487,175475514020004,96,35,JASONBROWN,2023-08-08 14:00:07,290487,,,
1404015513290487,175475514020004,97,35,JASONBROWN,2023-08-08 14:00:07,290487,,,
1404015514290487,175475514020004,98,35,JASONBROWN,2023-08-08 14:00:07,290487,,,
1404015515290487,175475514020004,99,35,JASONBROWN,2023-08-08 14:00:07,290487,,,
1404015516290487,175475514020004,100,35,JASONBROWN,2023-08-08 14:00:07,290487,,,
1404015517290487,175475514020004,101,35,JASONBROWN,2023-08-08 14:00:07,290487,,,
1404015518290487,175475514020004,102,35,JASONBROWN,2023-08-08 14:00:07,290487,,,
1404015519290487,175475514020004,103,35,JASONBROWN,2023-08-08 14:00:07,290487,,,
1404015520290487,175475514020004,131,35,JASONBROWN,2023-08-08 14:00:07,290487,,,
1404015521290487,175475514020004,132,35,JASONBROWN,2023-08-08 14:00:07,290487,,,
1404015522290487,175475514020004,1004,35,JASONBROWN,2023-08-08 14:00:07,290487,,,
1404015523290487,175475514020004,1005,35,JASONBROWN,2023-08-08 14:00:07,290487,,,
1404015524290487,175475514020004,1007,35,JASONBROWN,2023-08-08 14:00:07,290487,,,
1404015525290487,175475514020004,1008,35,JASONBROWN,2023-08-08 14:00:07,290487,,,
1404015526290487,175475514020004,11000,35,JASONBROWN,2023-08-08 14:00:07,290487,,,
1404015527290487,175475514020004,11001,35,JASONBROWN,2023-08-08 14:00:07,290487,,,
1404015528290487,175475514020004,11002,35,JASONBROWN,2023-08-08 14:00:07,290487,,,
1404015529290487,175475514020004,11003,35,JASONBROWN,2023-08-08 14:00:07,290487,,,
1404015530290487,175475514020004,11004,35,JASONBROWN,2023-08-08 14:00:07,290487,,,
1404015531290487,175475514020004,11005,35,JASONBROWN,2023-08-08 14:00:07,290487,,,
1404015532290487,175475514020004,11006,35,JASONBROWN,2023-08-08 14:00:07,290487,,,
1404015533290487,175475514020004,11007,35,JASONBROWN,2023-08-08 14:00:07,290487,,,
1404015534290487,175475514020004,11008,35,JASONBROWN,2023-08-08 14:00:07,290487,,,
1404015535290487,175475514020004,11009,35,JASONBROWN,2023-08-08 14:00:07,290487,,,
1404015536290487,175475514020004,11010,35,JASONBROWN,2023-08-08 14:00:07,290487,,,
1404015537290487,175475514020004,11011,35,JASONBROWN,2023-08-08 14:00:07,290487,,,
1404015538290487,175475514020004,11012,35,JASONBROWN,2023-08-08 14:00:07,290487,,,
1404015539290487,175475514020004,11013,35,JASONBROWN,2023-08-08 14:00:07,290487,,,
1404015540290487,175475514020004,11014,35,JASONBROWN,2023-08-08 14:00:07,290487,,,
1404015541290487,175475514020004,11015,35,JASONBROWN,2023-08-08 14:00:07,290487,,,
1404015542290487,175475514020004,11016,35,JASONBROWN,2023-08-08 14:00:07,290487,,,
1404015543290487,175475514020004,11017,35,JASONBROWN,2023-08-08 14:00:07,290487,,,
1404015544290487,175475514020004,11018,35,JASONBROWN,2023-08-08 14:00:07,290487,,,
1404015545290487,175475514020004,11019,35,JASONBROWN,2023-08-08 14:00:07,290487,,,
1404015546290487,175475514020004,11020,35,JASONBROWN,2023-08-08 14:00:07,290487,,,
1404015547290487,175475514020004,11021,35,JASONBROWN,2023-08-08 14:00:07,290487,,,
1404015548290487,175475514020004,11022,35,JASONBROWN,2023-08-08 14:00:07,290487,,,
1404015549290487,175475514020004,11023,35,JASONBROWN,2023-08-08 14:00:07,290487,,,
1404015550290487,175475514020004,11024,35,JASONBROWN,2023-08-08 14:00:07,290487,,,
1404015551290487,175475514020004,11025,35,JASONBROWN,2023-08-08 14:00:07,290487,,,
1404015552290487,175475514020004,11026,35,JASONBROWN,2023-08-08 14:00:07,290487,,,
1404015553290487,175475514020004,11027,35,JASONBROWN,2023-08-08 14:00:07,290487,,,
1404015554290487,175475514020004,11028,35,JASONBROWN,2023-08-08 14:00:07,290487,,,
1404015555290487,175475514020004,11029,35,JASONBROWN,2023-08-08 14:00:07,290487,,,
1404015556290487,175475514020004,11030,35,JASONBROWN,2023-08-08 14:00:07,290487,,,
1404015557290487,175475514020004,11031,35,JASONBROWN,2023-08-08 14:00:07,290487,,,
1404015558290487,175475514020004,11032,35,JASONBROWN,2023-08-08 14:00:07,290487,,,
1404015559290487,175475514020004,11033,35,JASONBROWN,2023-08-08 14:00:07,290487,,,
1404015560290487,175475514020004,11034,35,JASONBROWN,2023-08-08 14:00:07,290487,,,
1404015561290487,175475514020004,11035,35,JASONBROWN,2023-08-08 14:00:07,290487,,,
1404015562290487,175475514020004,11036,35,JASONBROWN,2023-08-08 14:00:07,290487,,,